Regional Weather Roundup
Issued by NWS

Home | Current Version | Previous Version | Text Only | Print | Product List | Glossary Off
Versions: 1 2 3 4 5 6 7 8 9 10 11 12 13 14 15 16 17 18 19 20 21 22 23 24 25 26 27 28 29 30 31 32 33 34 35 36 37 38 39 40 41 42 43 44 45 46 47 48 49 50

000
ASUS43 KLOT 180306
RWRIL

ILLINOIS REGIONAL WEATHER ROUNDUP
NATIONAL WEATHER SERVICE CHICAGO/ROMEOVILLE IL
1000 PM CDT THU APR 17 2014

NOTE: "FAIR" INDICATES FEW OR NO CLOUDS BELOW 12,000 FEET WITH NO
SIGNIFICANT WEATHER AND/OR OBSTRUCTIONS TO VISIBILITY.

* THESE STATIONS ARE NOT UNDER NWS QUALITY CONTROL. THEY ALSO MAY NOT
  REPORT WEATHER SUCH AS PRECIPITATION OR FOG.

ILZ001-002-007-009-015-016-024-180400-
NORTHWEST ILLINOIS

CITY           SKY/WX    TMP DP  RH WIND       PRES   REMARKS
MOLINE         MOCLDY    44  34  67 W5        30.27S
STERLING*      CLOUDY    48  37  66 W7        30.26S
SAVANNA*       PTCLDY    47  36  65 NW5       30.27R
$$

ILZ003-004-008-010-011-017-018-180400-
NORTH CENTRAL ILLINOIS

CITY           SKY/WX    TMP DP  RH WIND       PRES   REMARKS
ROCKFORD       CLOUDY    49  37  63 CALM      30.27R
FREEPORT*      MOCLDY    47  38  70 W3        30.28S
ROCHELLE*      CLOUDY    42  36  78 SW6       30.26S
DE KALB*       CLOUDY    46  37  68 W7        30.25S
PERU*          CLOUDY    48  38  66 CALM      30.26S
$$

ILZ005-006-012>014-019>023-180400-
NORTHEAST ILLINOIS

CITY           SKY/WX    TMP DP  RH WIND       PRES   REMARKS
CHICAGO-OHARE  CLOUDY    53  37  54 W5        30.24S
CHICAGO-MIDWAY CLOUDY    55  39  54 W5        30.24F
AURORA         CLOUDY    47  38  71 W6        30.25S
LANSING*       CLOUDY    54  38  55 W5        30.25S
WAUKEGAN       CLOUDY    44  36  73 SE3       30.24S
DUPAGE AIRPORT CLOUDY    50  38  63 W7        30.24S
KANKAKEE*      CLOUDY    51  43  73 W3        30.26S
WHEELING       CLOUDY    50  38  63 NE6       30.26R
MORRIS*        CLOUDY    49  37  61 W5        30.25S
NORTHERLY ISL    N/A     56  37  49 W5          N/A
$$

LMZ740>746-180400-
SOUTHERN LAKE MICHIGAN

STATION/POSITION SKY/WX   TEMP    WIND        PRES    VSBY  WAVE
                          AIR SEA DIR/SP/G                  HT/PER
                          (F)     (DEG/KT/KT) (MB)    (MI)  (FT/S)
WAUKEGAN HARBOR            44      CALM  /  1 1025.7S
HARRISON CRIB              50      60/ 11/ 12   N/A
BURNHAM HARBOR             55     270/  5/  9   N/A
CALUMET HARBOR             56     270/  6/  8 1024.8F
MICHIGAN CITY              51     350/  2/  6   N/A
$$

ILZ025>027-034>036-040-047-049-050-058-095>099-180400-
WEST-CENTRAL ILLINOIS

CITY           SKY/WX    TMP DP  RH WIND       PRES   REMARKS
QUINCY         CLOUDY    47  38  71 N3        30.28S
GALESBURG*     CLOUDY    43  37  78 CALM      30.27S
MACOMB*        CLOUDY    45  37  76 W5        30.30S
JACKSONVILLE*  CLOUDY    48  38  68 CALM      30.29R
PITTSFIELD*    CLOUDY    50  39  65 N6        30.29R
$$

ILZ028>032-037-038-041>044-048-051>054-059>061-180400-
CENTRAL ILLINOIS

CITY           SKY/WX    TMP DP  RH WIND       PRES   REMARKS
PONTIAC        CLOUDY    52  41  66 CALM      30.26R
BLOOMINGTON    CLOUDY    50  37  60 CALM      30.27R
DECATUR        CLOUDY    53  40  61 N8        30.26S
PEORIA         MOCLDY    50  36  58 NW5       30.27S
LACON*         CLOUDY    49  37  63 CALM      30.26S
LINCOLN*       CLOUDY    52  39  62 NW3       30.27R
SPRINGFIELD    CLOUDY    52  38  58 N5        30.27R
TAYLORVILLE    CLOUDY    48  41  76 N6        30.27R
$$

ILZ033-039-045-046-055>057-062-063-180400-
EAST-CENTRAL ILLINOIS

CITY           SKY/WX    TMP DP  RH WIND       PRES   REMARKS
CHAMPAIGN      CLOUDY    50  41  71 NW7       30.25S
RANTOUL*       CLOUDY    55  41  57 CALM      30.26S
MATTOON        CLOUDY    54  41  61 NW3       30.25R
PARIS*         CLOUDY    53  40  60 W5        30.27R
$$

ILZ079-100>102-180400-
SOUTHWEST ILLINOIS

CITY           SKY/WX    TMP DP  RH WIND       PRES   REMARKS
ALTON          CLEAR     54  37  54 N7        30.27R
BELLEVILLE     MOCLDY    58  42  55 NE3       30.25R
CAHOKIA*       MOCLDY    56  42  59 N7        30.26R
SPARTA*        PTCLDY    57  37  47 S3        30.26R
$$

ILZ064>066-069>071-074>076-080>082-084>086-088>090-092>094-180400-
SOUTH-CENTRAL ILLINOIS

CITY           SKY/WX    TMP DP  RH WIND       PRES   REMARKS
CARBONDALE     PTCLDY    53  39  59 CALM      30.26R
CAIRO*         MOCLDY    55  47  73 NW3       30.25S
MARION         PTCLDY    57  39  51 CALM      30.26S
MT. VERNON     PTCLDY    45  34  65 CALM      30.27R
CENTRALIA*       N/A     51  39  64 CALM      30.25S
SALEM*         PTCLDY    58  38  48 CALM      30.26R
METROPOLIS*    MOCLDY    53  42  65 CALM      30.25S
$$

ILZ067-068-072-073-078-083-087-091-180400-
SOUTHEAST ILLINOIS

CITY           SKY/WX    TMP DP  RH WIND       PRES   REMARKS
FAIRFIELD*     PTCLDY    54  45  71 CALM      30.26S
HARRISBURG*    PTCLDY    52  43  71 CALM      30.27S
ROBINSON*      MOCLDY    51  44  76 CALM      30.27S
CARMI*         PTCLDY    54  46  74 CALM      30.26R
$$

ABBREVIATIONS USED IN REMARKS
   TC - TEMPERATURE IN CELSIUS
  WCI - WIND CHILL INDEX
   HX - HEAT INDEX
  VSB - VISIBILITY
$$




USA.gov is the U.S. government's official web portal to all federal, state and local government web resources and services.